Tracking 30923 objects as of 1-Jul-2025
HD Live streaming from Space Station
objects crossing your sky now

STARLINK-1856

Track STARLINK-1856 now!
10-day predictions
STARLINK-1856 is classified as:


NORAD ID: 47143
Int'l Code: 2020-088X
Perigee: 553.4 km
Apogee: 555.3 km
Inclination: 53.1 °
Period: 95.6 minutes
Semi major axis: 6925 km
RCS: Unknown
Launch date: November 25, 2020
Source: United States (US)
Launch site: AIR FORCE EASTERN TEST RANGE (AFETR)
Your satellite tracking list
STARLINK-31696
Track 1 satellite(s)




NASA's NSSDC Master Catalog

Two Line Element Set (TLE):
1 47143U 20088X   25181.76317390  .00000833  00000-0  74817-4 0  9995
2 47143  53.0560 342.5591 0001352  89.6932 270.4211 15.06398770254292
Source of the keplerian elements: AFSPC